SAWG Airport Information

Runway Information
Runway 7 Length 11644 ft width 148 ft
Elevation 61 ft Threshold 243 ft Heading 86
Runway 25 Length 11644 ft Width 148 ft
Elevation 51 ft Threshold 0 ft Heading 266
Airport Frequencies
Type APP Name APP/TWR Frequency 119.1 MHZ
Type ATIS Name ATIS Frequency 116.7 MHZ
Type RDO Name RDO Frequency 122.1 MHZ
Type TCA Name CON Frequency 124.7 MHZ
Airport Navaids
Type NDB Name Rio Gallegos Frequency 255 KHZ
Type VOR-DME Name Rio Gallegos Frequency 116700 KHZ
Type NDB Name Rio Gallegos Frequency 330 KHZ
Airport Weather Information & NOTAM
ADDS - METARS form results

(0133 UTC 19 August 2018)
 
METAR text: SAWG 190100Z 27009KT 9999 FEW035 SCT100 02/M04 Q1019
Conditions at: SAWG (RIO GALLEGOS ARP, AR) observed 0100 UTC 19 August 2018
Temperature: 2.0°C (36°F)
Dewpoint: -4.0°C (25°F) [RH = 64%]
Pressure (altimeter): 30.09 inches Hg (1019.0 mb)
Winds: from the W (270 degrees) at 10 MPH (9 knots; 4.7 m/s)
Visibility: 6 or more miles (10+ km)
Ceiling: at least 12,000 feet AGL
Clouds: few clouds at 3500 feet AGL
scattered clouds at 10000 feet AGL
Weather: no significant weather observed at this time